map of SPZ home
SPZ - Airport
Location
City:  Springdale, Arkansas, United States
Name:Springdale Municipal Airport
ICAO:KASG
IATA:SPZ
FAA LID:ASG

Details
Type:Airport (Airfield)
Use:Public/Civil
Latitude:3610'35"N (36.176389)
Longitude:9407'09"W (-94.119249)
Datum:WGS 1984
Elevation:1352 ft (412 m)
Variation:1.38E (WMM2015 magnetic declination)
-0.10 annual change
Runways:1
Longest:5302 × 76 ft (1616 × 23 m), paved

Time
Time Zone:UTC-6 (DST-5)
Local Time:

Weather
METAR:KASG 150248Z 36003KT 10SM BKN060 BKN070 OVC100 M01/M09 A3031

Related Locations
Nearby:
Farthest:YAUG: 10789 mi / 17364 km
Augusta [Augusta Airport], WA, AU

Find:

   beyond  
but within

Other Information
Maps:
NOTAMs:
Links:
Sources:

  
  • flag of United States
  • flag of Arkansas
  

Airport Diagram

Airport diagram for SPZ

Airport diagram PDF

Sectional Chart

Flight Planning
at skyvector.com

Satellite Image

Google Maps Satellite view

 

Copyright © 2004-2018 Karl L. Swartz. All rights reserved.
The Great Circle Mapper name and logo are trademarks of the Great Circle Mapper.
All other trademarks mentioned herein belong to their respective owners.
Please see credits for attibutions and further copyright information.

  Follow gcmap on Facebook Follow gcmap on Twitter Follow gcmap on Google+ GCmap on LinkedIn

hCard Microformat

Geo Microformat